This is the latest recevied weather packets stored in our database for station/object YO2LDK-13. If no packets are shown the sender has not sent any weather packets the latest 10 day(s).
| Time | Temp. | Humidity | Pressure | Rain* | Wind** | Luminosity | Snow |
|---|---|---|---|---|---|---|---|
| 1777727119 | 22.78° C | 30% | 1009.5 hPa | 0 mm | - | 121 W/m² | - |
| 1777726819 | 22.22° C | 30% | 1009.5 hPa | 0 mm | - | 730 W/m² | - |
| 1777726520 | 21.67° C | 31% | 1009.8 hPa | 0 mm | - | 713 W/m² | - |
| 1777726220 | 21.67° C | 31% | 1009.8 hPa | 0 mm | - | 729 W/m² | - |
| 1777725919 | 21.67° C | 32% | 1010.2 hPa | 0 mm | - | 132 W/m² | - |
| 1777725619 | 22.78° C | 32% | 1009.8 hPa | 0 mm | - | 409 W/m² | - |
| 1777725319 | 22.22° C | 31% | 1009.8 hPa | 0 mm | - | 753 W/m² | - |
| 1777725020 | 21.67° C | 31% | 1010.2 hPa | 0 mm | - | 810 W/m² | - |
| 1777724719 | 21.11° C | 33% | 1009.8 hPa | 0 mm | - | 813 W/m² | - |
| 1777724419 | 21.67° C | 31% | 1010.2 hPa | 0 mm | - | 399 W/m² | - |
| 1777724119 | 22.22° C | 31% | 1010.2 hPa | 0 mm | - | 120 W/m² | - |
| 1777723819 | 21.67° C | 31% | 1010.2 hPa | 0 mm | - | 129 W/m² | - |
| 1777723519 | 21.67° C | 33% | 1010.2 hPa | 0 mm | - | 499 W/m² | - |
| 1777722619 | 21.11° C | 32% | 1010.5 hPa | 0 mm | - | 849 W/m² | - |
| 1777722020 | 21.67° C | 31% | 1010.8 hPa | 0 mm | - | 104 W/m² | - |
| 1777721719 | 22.22° C | 31% | 1010.8 hPa | 0 mm | - | 147 W/m² | - |
| 1777721419 | 22.78° C | 30% | 1010.8 hPa | 0 mm | - | 840 W/m² | - |
| 1777721119 | 22.22° C | 32% | 1010.8 hPa | 0 mm | - | 129 W/m² | - |
| 1777720820 | 22.22° C | 32% | 1011.2 hPa | 0 mm | - | 135 W/m² | - |
| 1777720519 | 21.67° C | 33% | 1011.2 hPa | 0 mm | - | 112 W/m² | - |
| 1777720219 | 21.11° C | 33% | 1011.2 hPa | 0 mm | - | 123 W/m² | - |
| 1777719919 | 21.11° C | 33% | 1011.5 hPa | 0 mm | - | 107 W/m² | - |
| 1777719619 | 21.11° C | 33% | 1011.5 hPa | 0 mm | - | 104 W/m² | - |
| 1777719319 | 21.11° C | 33% | 1011.2 hPa | 0 mm | - | 102 W/m² | - |
| 1777719019 | 21.11° C | 33% | 1011.5 hPa | 0 mm | - | 118 W/m² | - |
* Rain latest hour (hover to see other rain measurements)
** Current wind speed in m/s (hover to see current wind gust speed)